Newark, NJ

8:36 AM EST on November 21, 2019 (GMT -0500)
Newark International

Weather History for KEWR - October, 2019

Change the Weather History Date:

Monday, October 14, 2019

  Actual Average Record
Temperature  
Mean Temperature 67 °F 57 °F  
Max Temperature 75 °F 66 °F 85 °F (1975)
Min Temperature 59 °F 48 °F 32 °F (1932)
Degree Days  
Heating Degree Days 0 8  
Month to date heating degree days 90  
Since 1 July heating degree days 135  
Cooling Degree Days 2 0  
Month to date cooling degree days 14  
Year to date cooling degree days 1188  
Growing Degree Days 17 (Base 50)    
Moisture  
Dew Point 48 °F    
Average Humidity 60    
Maximum Humidity 87    
Minimum Humidity 27    
Precipitation  
Precipitation 0.00 in 0.12 in 1.57 in (1955)
Month to date precipitation 1.66  
Year to date precipitation 36.85  
Snow  
Snow - 0.00 in 0.00 in (2002)
Month to date snowfall 0.0  
Since 1 July snowfall 0.0  
Snow Depth -    
Sea Level Pressure  
Sea Level Pressure 29.97 in    
Wind  
Wind Speed 4 mph ()    
Max Wind Speed 15 mph    
Max Gust Speed -    
Visibility 10.0 miles    
Events      
T = Trace of Precipitation, MM = Missing Value Source: Averaged Metar Reports

Daily Weather History Graph

Daily Weather History Graph

Search for Another Location

Airport or City:

Astronomy

Oct. 14, 2019 Rise Set
Actual Time 7:06 AM EDT 6:18 PM EDT
Civil Twilight 6:38 AM EDT 6:45 PM EDT
Nautical Twilight 6:07 AM EDT 7:17 PM EDT
Astronomical Twilight 5:35 AM EDT 7:49 PM EDT
Moon 7:07 PM EDT (10/14) 7:35 AM EDT (10/14)
Length of Visible Light 12h 06m
Length of Day
11h 11m
Waxing Gibbous, 99% of the Moon is Illuminated
Oct 14
Waxing Gibbous
Oct 21
Last Quarter
Oct 27
New
Nov 4
First Quarter
Nov 12
Full

Hourly Weather History & Observations

Time (EDT) Temp. Dew Point Humidity Pressure Visibility Wind Dir Wind Speed Gust Speed Precip Events Conditions
12:22 AM 60.1 °F 54.0 °F 80% 30.01 in 10.0 mi Calm Calm - N/A   Overcast
12:51 AM 60.1 °F 55.0 °F 83% 30.01 in 10.0 mi Calm Calm - N/A   Overcast
1:51 AM 60.1 °F 54.0 °F 80% 30.00 in 10.0 mi South 3.5 mph - N/A   Overcast
2:51 AM 60.1 °F 54.0 °F 80% 29.97 in 10.0 mi Calm Calm - N/A   Overcast
3:51 AM 60.1 °F 54.0 °F 80% 29.95 in 10.0 mi Calm Calm - N/A   Overcast
4:51 AM 59.0 °F 54.0 °F 83% 29.95 in 10.0 mi SSE 3.5 mph - N/A   Mostly Cloudy
5:51 AM 59.0 °F 55.0 °F 87% 29.96 in 10.0 mi SSE 3.5 mph - N/A   Overcast
6:51 AM 59.0 °F 55.0 °F 87% 29.98 in 10.0 mi West 5.8 mph - N/A   Overcast
7:51 AM 60.1 °F 55.0 °F 83% 29.99 in 10.0 mi West 3.5 mph - N/A   Overcast
8:51 AM 61.0 °F 54.0 °F 78% 30.01 in 10.0 mi West 6.9 mph - N/A   Overcast
9:51 AM 62.1 °F 53.1 °F 72% 30.01 in 10.0 mi West 4.6 mph - N/A   Overcast
10:51 AM 64.0 °F 53.1 °F 67% 30.00 in 10.0 mi West 5.8 mph - N/A   Mostly Cloudy
11:02 AM 64.9 °F 54.0 °F 68% 30.00 in 10.0 mi SW 8.1 mph - N/A   Scattered Clouds
11:51 AM 66.9 °F 53.1 °F 61% 29.98 in 10.0 mi West 8.1 mph - N/A   Partly Cloudy
12:51 PM 69.1 °F 51.1 °F 53% 29.96 in 10.0 mi WSW 8.1 mph - N/A   Partly Cloudy
1:51 PM 72.0 °F 48.9 °F 44% 29.93 in 10.0 mi SW 10.4 mph - N/A   Partly Cloudy
2:51 PM 73.9 °F 45.0 °F 35% 29.91 in 10.0 mi West 10.4 mph - N/A   Partly Cloudy
3:51 PM 75.0 °F 42.1 °F 31% 29.90 in 10.0 mi West 10.4 mph - N/A   Partly Cloudy
4:51 PM 73.0 °F 39.0 °F 29% 29.90 in 10.0 mi West 15.0 mph - N/A   Partly Cloudy
5:51 PM 71.1 °F 35.1 °F 27% 29.92 in 10.0 mi West 12.7 mph - N/A   Clear
6:51 PM 69.1 °F 37.0 °F 31% 29.94 in 10.0 mi WSW 11.5 mph - N/A   Clear
7:51 PM 66.9 °F 39.0 °F 36% 29.96 in 10.0 mi West 9.2 mph - N/A   Clear
8:51 PM 64.9 °F 39.9 °F 40% 29.98 in 10.0 mi West 5.8 mph - N/A   Clear
9:51 PM 63.0 °F 41.0 °F 45% 30.01 in 10.0 mi West 6.9 mph - N/A   Clear
10:51 PM 63.0 °F 41.0 °F 45% 30.03 in 10.0 mi NW 10.4 mph - N/A   Clear
11:51 PM 61.0 °F 39.9 °F 46% 30.04 in 10.0 mi NW 11.5 mph - N/A   Clear